Location: Eaton Estates
(41.3089°N, 82.0057°W)
Time: 22:08:09
(UTC+00:00)

X-37B - Pass Details

Date: 07 December 2022
Orbit: 277 x 277 km, 45.0° (Epoch: 01 November)

Event Time Altitude Azimuth Distance (km) Brightness Sun altitude
Rises 23:28:45 0° 237° (WSW) 1,905 5.6 -16.4°
Reaches altitude 10° 23:30:41 10° 232° (SW) 1,096 3.9 -16.7°
Enters shadow 23:32:48 47° 181° (S) 374 0.5 -17.1°
